This is the latest recevied weather packets stored in our database for station/object W2JBO-5. If no packets are shown the sender has not sent any weather packets the latest 10 day(s).
| Time | Temp. | Humidity | Pressure | Rain* | Wind** | Luminosity | Snow |
|---|---|---|---|---|---|---|---|
| 1777822600 | 23.33° C | 44% | 1023.2 hPa | 0 mm | - | 846 W/m² | - |
| 1777822297 | 23.33° C | 43% | 1023.2 hPa | 0 mm | - | 812 W/m² | - |
| 1777821995 | 22.78° C | 47% | 1023.2 hPa | 0 mm | - | 830 W/m² | - |
| 1777821692 | 22.78° C | 43% | 1023.2 hPa | 0 mm | - | 802 W/m² | - |
| 1777821390 | 22.78° C | 47% | - | 0 mm | - | - | - |
| 1777821086 | 22.22° C | 51% | - | 0 mm | - | - | - |
| 1777820783 | 22.78° C | 45% | - | 0 mm | - | - | - |
| 1777820480 | 22.22° C | 47% | 1022.8 hPa | 0 mm | - | 701 W/m² | - |
| 1777820177 | 22.78° C | 53% | 1022.8 hPa | 0 mm | - | 691 W/m² | - |
| 1777819874 | 22.78° C | 51% | 1022.8 hPa | 0 mm | - | 689 W/m² | - |
| 1777819571 | 22.78° C | 50% | 1022.8 hPa | 0 mm | - | 655 W/m² | - |
| 1777819269 | 21.67° C | 53% | 1022.8 hPa | 0 mm | - | 636 W/m² | - |
| 1777818965 | 21.67° C | 63% | 1022.8 hPa | 0 mm | - | 636 W/m² | - |
| 1777818662 | 21.67° C | 66% | 1022.8 hPa | 0 mm | - | 632 W/m² | - |
| 1777818359 | 21.67° C | 60% | 1022.8 hPa | 0 mm | - | 587 W/m² | - |
| 1777818056 | 20.56° C | 66% | 1022.8 hPa | 0 mm | - | 480 W/m² | - |
| 1777817752 | 21.11° C | 67% | 1022.8 hPa | 0 mm | - | 518 W/m² | - |
| 1777817450 | 21.11° C | 67% | 1022.8 hPa | 0 mm | - | 552 W/m² | - |
| 1777817146 | 20° C | 66% | 1022.8 hPa | 0 mm | - | 515 W/m² | - |
| 1777816844 | 20° C | 67% | 1022.7 hPa | 0 mm | - | 445 W/m² | - |
| 1777816541 | 20° C | 71% | 1022.7 hPa | 0 mm | - | 422 W/m² | - |
| 1777816238 | 19.44° C | 72% | 1022.6 hPa | 0 mm | - | 387 W/m² | - |
| 1777815935 | 19.44° C | 72% | 1022.5 hPa | 0 mm | - | 367 W/m² | - |
| 1777815633 | 18.89° C | 75% | 1022.5 hPa | 0 mm | - | 331 W/m² | - |
| 1777815330 | 18.89° C | 78% | 1022.7 hPa | 0 mm | - | 285 W/m² | - |
* Rain latest hour (hover to see other rain measurements)
** Current wind speed in m/s (hover to see current wind gust speed)